ARIANE 5 DEB, 43384

Orbit data source: Space-Track

ARIANE 5 DEB, 43384 is space debris in HEO originally from a launch on Thu, 12 Jun 2008 UTC launched from the French Guiana (FRGUI). Debris objects in space refer to the collection of defunct objects orbiting the Earth. Examples of debris include non-operational satellites, rocket bodies, and fragments generated from explosions, collisions, or faulty payload assembly.

Loading next visibility...
Identifier
43384, 2008-030G
Orbit
HEO
Last TLE update
22 hours ago
Origin
Manufacturer
Thales Alenia
Mission
Spacecraft
Bus & Motor
Unknown
Mass
Unknown
Launch date (UTC)
2008-06-12 (17 years ago)
Launch vehicle
Unknown
Launch site
French Guiana (FRGUI)
Object type
Payload
Rocket body
Debris
Shape & HBR
Unknown
Radar Cross Section
Medium (>0.1 m² and <1 m²)

Expand to show TLE details & history

TLE from 22 hours ago
0 ARIANE 5 DEB
1 43384U 08030G   25191.57393253  .00000051  00000-0  19099-3 0  9995
2 43384   1.9559  46.8657 7185582 165.6946 236.3442  2.30540165138318
Epoch: 2025-07-10T13:46Z
TLE epoch observation values (Epoch: 2025-07-10T13:46:27.77Z)
Latitude
0.00014°
Longitude
-88.81799°
Altitude
32,301.048 km
Speed
2.035 km/s
True Right ascension
03h 06m 08s
True Declination
0° 00' 01"
Sunlit
Object was in daylight at epoch
Visualization orbit readout
Latitude
0.5719°
Longitude
-72.62259°
Altitude
24,753.787 km
Speed
3.023 km/s
Apparent Right ascension
04h 44m 11s
Apparent Declination
-7° 25' 14"
Sunlit
Object is in daylight
Visualization observer readout
Local Sidereal Time
00:16:59
Azimuth
110.992° ESE
Elevation
12.518°
Doppler factor
1
Orbital elements
Apogee altitude
35,228.777 km
Perigee altitude
435.671 km
Semi-major axis
24,210.361 km
Eccentricity
0.71856
Inclination
1.9559°
RAAN
46.8657°
Arg. of periapsis
165.6946°
True anomaly
Unknown
Mean anomaly
236.3442°
Eccentric anomaly
Unknown
Mean motion
0.57616 °/min
Orbital period
624.83 mins
BSTAR
0.00019099
Loading maneuver chart data...
Loading SW <> Apogee altitude chart data...
Loading historical data...
Loading historical data...
Loading historical data...
Loading historical data...
Loading historical data...
Loading historical data...
Loading historical data...

ARIANE 5 DEB Visibility forecast

Observer location: undefined°, undefined°

Span
Click to sort rows by Start time (UTC) header in descending order
Start Az.
Max El. time (UTC)
Max El. Az.
Max El.
End time (UTC)
End Az.
30 mins2025-07-11 11:58:51.862Z111.012° ESE2025-07-11 11:58:51.862Z111.012° ESE12.22°2025-07-11 12:28:51.862Z110.15° ESE
17 mins2025-07-12 11:41:51.862Z229.072° WSW2025-07-12 11:58:51.862Z219.396° SW21.243°2025-07-12 11:58:51.862Z219.396° SW
|